QPF
0.00 0.00 0.00 0.01 0.06 0.09 0.09 0.03 0.01 0.00 0.00 0.00 0.00 0.00 0.01 0.04 0.07 0.09 0.03 0.01 0.01 0.01 0.02 0.02 0.03 0.03 0.04 0.03 0.03 0.02 0.02 0.03 0.04 0.04 0.05 0.05 0.06 0.06 0.06 0.05 0.08 0.07 0.07 0.08 0.08 0.06 0.04 0.04 0.03
0.00 0.00 0.00 0.02 0.09 0.13 0.10 0.02 0.01 0.01 0.00 0.00 0.00 0.00 0.00 0.01 0.01 0.01 0.00 0.00 0.00 0.00 0.01 0.02 0.02 0.03 0.03 0.03 0.03 0.03 0.03 0.03 0.04 0.05 0.07 0.08 0.08 0.07 0.07 0.06 0.08 0.09 0.08 0.08 0.06 0.04 0.02 0.03 0.03
0.00 0.00 0.00 0.03 0.06 0.09 0.07 0.02 0.00 0.00 0.00 0.00 0.01 0.01 0.00 0.01 0.00 0.00 0.00 0.00 0.00 0.00 0.00 0.01 0.01 0.02 0.03 0.02 0.02 0.02 0.03 0.02 0.03 0.06 0.10 0.11 0.09 0.08 0.07 0.06 0.08 0.09 0.08 0.06 0.03 0.03 0.02 0.02 0.02
0.00 0.01 0.02 0.03 0.04 0.03 0.03 0.01 0.00 0.00 0.00 0.01 0.01 0.01 0.00 0.00 0.01 0.00 0.00 0.00 0.00 0.00 0.00 0.00 0.01 0.02 0.04 0.02 0.01 0.02 0.02 0.02 0.02 0.05 0.09 0.10 0.09 0.09 0.07 0.08 0.09 0.08 0.06 0.03 0.02 0.02 0.02 0.02 0.02
0.00 0.03 0.05 0.03 0.03 0.01 0.00 0.00 0.00 0.00 0.01 0.00 0.00 0.01 0.01 0.00 0.00 0.00 0.00 0.00 0.01 0.01 0.01 0.01 0.01 0.03 0.04 0.04 0.03 0.03 0.03 0.02 0.02 0.04 0.07 0.08 0.08 0.08 0.07 0.07 0.07 0.05 0.04 0.02 0.02 0.02 0.02 0.02 0.02
0.00 0.03 0.04 0.02 0.01 0.00 0.00 0.00 0.00 0.00 0.00 0.00 0.02 0.02 0.01 0.00 0.00 0.00 0.00 0.01 0.02 0.02 0.02 0.01 0.01 0.02 0.03 0.03 0.03 0.03 0.03 0.03 0.03 0.04 0.05 0.06 0.06 0.06 0.06 0.05 0.04 0.04 0.03 0.02 0.02 0.02 0.02 0.02 0.04
0.01 0.03 0.04 0.03 0.02 0.00 0.00 0.00 0.00 0.00 0.00 0.01 0.01 0.02 0.01 0.01 0.00 0.00 0.01 0.02 0.02 0.02 0.03 0.03 0.02 0.02 0.02 0.02 0.03 0.03 0.04 0.03 0.02 0.03 0.04 0.04 0.04 0.05 0.05 0.05 0.04 0.04 0.03 0.02 0.02 0.03 0.02 0.02 0.03
0.00 0.01 0.01 0.03 0.04 0.01 0.00 0.00 0.00 0.01 0.00 0.01 0.00 0.02 0.01 0.00 0.00 0.00 0.01 0.03 0.05 0.04 0.03 0.04 0.05 0.04 0.02 0.01 0.01 0.02 0.03 0.03 0.03 0.03 0.03 0.03 0.07 0.08 0.06 0.05 0.04 0.03 0.03 0.03 0.03 0.03 0.02 0.02 0.02
0.00 0.01 0.01 0.03 0.04 0.01 0.00 0.00 0.00 0.00 0.00 0.00 0.00 0.01 0.00 0.00 0.00 0.01 0.03 0.04 0.06 0.04 0.05 0.05 0.05 0.05 0.03 0.02 0.01 0.02 0.02 0.03 0.04 0.03 0.03 0.06 0.19 0.17 0.08 0.05 0.04 0.04 0.03 0.04 0.04 0.04 0.03 0.02 0.02
0.00 0.03 0.02 0.01 0.02 0.00 0.00 0.00 0.00 0.00 0.00 0.00 0.00 0.00 0.00 0.00 0.00 0.01 0.02 0.03 0.04 0.03 0.04 0.05 0.06 0.07 0.05 0.03 0.03 0.06 0.05 0.05 0.08 0.07 0.07 0.15 0.19 0.21 0.11 0.06 0.05 0.04 0.04 0.04 0.04 0.04 0.03 0.05 0.04
0.00 0.01 0.01 0.01 0.01 0.00 0.00 0.00 0.00 0.00 0.01 0.00 0.00 0.00 0.00 0.01 0.02 0.03 0.04 0.05 0.05 0.06 0.05 0.05 0.05 0.06 0.07 0.08 0.05 0.07 0.08 0.09 0.13 0.10 0.08 0.11 0.10 0.12 0.11 0.09 0.08 0.07 0.06 0.06 0.06 0.08 0.09 0.08 0.05
0.00 0.00 0.00 0.01 0.01 0.00 0.00 0.00 0.00 0.00 0.03 0.02 0.01 0.00 0.00 0.01 0.02 0.04 0.05 0.07 0.07 0.07 0.06 0.05 0.04 0.05 0.08 0.08 0.08 0.05 0.06 0.06 0.08 0.08 0.05 0.06 0.08 0.10 0.11 0.13 0.12 0.12 0.12 0.15 0.13 0.14 0.10 0.07 0.04
0.00 0.00 0.01 0.01 0.00 0.00 0.00 0.00 0.00 0.00 0.00 0.01 0.01 0.00 0.00 0.01 0.02 0.03 0.06 0.08 0.07 0.08 0.07 0.06 0.03 0.04 0.06 0.07 0.06 0.06 0.07 0.06 0.07 0.05 0.05 0.04 0.05 0.08 0.09 0.10 0.12 0.11 0.13 0.14 0.14 0.13 0.11 0.09 0.05
0.00 0.00 0.00 0.00 0.00 0.00 0.00 0.00 0.00 0.00 0.00 0.00 0.00 0.00 0.00 0.00 0.01 0.02 0.04 0.06 0.07 0.07 0.06 0.05 0.05 0.04 0.05 0.04 0.05 0.05 0.05 0.07 0.05 0.03 0.02 0.02 0.04 0.06 0.09 0.08 0.08 0.09 0.09 0.10 0.08 0.07 0.09 0.09 0.06
0.00 0.00 0.00 0.00 0.00 0.00 0.00 0.00 0.00 0.00 0.00 0.00 0.00 0.00 0.00 0.00 0.01 0.01 0.02 0.05 0.06 0.07 0.07 0.05 0.04 0.05 0.05 0.04 0.04 0.04 0.03 0.04 0.04 0.05 0.03 0.03 0.04 0.05 0.07 0.10 0.08 0.07 0.05 0.04 0.04 0.04 0.05 0.07 0.07
0.00 0.00 0.00 0.00 0.00 0.00 0.00 0.00 0.01 0.01 0.00 0.00 0.00 0.00 0.00 0.00 0.00 0.01 0.03 0.06 0.05 0.07 0.07 0.05 0.03 0.03 0.05 0.05 0.06 0.04 0.03 0.04 0.05 0.05 0.04 0.03 0.04 0.03 0.05 0.07 0.07 0.05 0.04 0.03 0.05 0.05 0.05 0.07 0.07
0.00 0.00 0.00 0.00 0.00 0.00 0.00 0.02 0.02 0.03 0.01 0.00 0.00 0.00 0.00 0.00 0.00 0.01 0.02 0.05 0.05 0.08 0.10 0.07 0.06 0.05 0.06 0.06 0.06 0.05 0.05 0.06 0.06 0.07 0.07 0.05 0.03 0.03 0.04 0.06 0.08 0.05 0.05 0.04 0.04 0.08 0.07 0.07 0.05
0.00 0.00 0.00 0.00 0.00 0.00 0.00 0.02 0.06 0.05 0.01 0.00 0.00 0.00 0.00 0.00 0.00 0.00 0.01 0.04 0.07 0.10 0.12 0.09 0.07 0.08 0.08 0.07 0.07 0.08 0.07 0.06 0.07 0.07 0.08 0.05 0.03 0.02 0.03 0.05 0.05 0.04 0.06 0.07 0.08 0.11 0.09 0.07 0.06
0.01 0.01 0.01 0.00 0.00 0.00 0.00 0.01 0.04 0.03 0.01 0.00 0.00 0.00 0.03 0.02 0.00 0.00 0.01 0.02 0.07 0.12 0.09 0.08 0.08 0.08 0.09 0.08 0.07 0.07 0.08 0.09 0.09 0.08 0.06 0.05 0.03 0.03 0.03 0.06 0.09 0.05 0.07 0.07 0.07 0.09 0.09 0.07 0.05
0.00 0.00 0.00 0.00 0.00 0.00 0.00 0.00 0.02 0.01 0.00 0.00 0.00 0.00 0.02 0.03 0.01 0.01 0.01 0.02 0.04 0.06 0.06 0.09 0.08 0.08 0.07 0.07 0.06 0.08 0.10 0.10 0.08 0.08 0.09 0.06 0.04 0.03 0.03 0.07 0.07 0.06 0.08 0.06 0.06 0.08 0.10 0.08 0.06
0.00 0.00 0.00 0.00 0.00 0.00 0.00 0.00 0.01 0.02 0.00 0.00 0.00 0.00 0.00 0.00 0.00 0.01 0.02 0.03 0.05 0.04 0.04 0.06 0.06 0.06 0.07 0.07 0.07 0.08 0.09 0.09 0.09 0.12 0.11 0.08 0.05 0.03 0.04 0.06 0.05 0.06 0.05 0.07 0.06 0.07 0.08 0.09 0.08
0.00 0.00 0.00 0.01 0.01 0.00 0.00 0.00 0.01 0.01 0.00 0.00 0.00 0.00 0.00 0.00 0.00 0.00 0.01 0.02 0.03 0.03 0.03 0.05 0.06 0.05 0.05 0.06 0.06 0.06 0.05 0.06 0.08 0.11 0.11 0.10 0.08 0.05 0.04 0.04 0.04 0.05 0.05 0.08 0.05 0.07 0.07 0.07 0.08
0.00 0.00 0.00 0.00 0.00 0.00 0.00 0.00 0.01 0.01 0.01 0.00 0.00 0.00 0.00 0.01 0.01 0.01 0.01 0.02 0.03 0.03 0.04 0.05 0.06 0.06 0.05 0.06 0.07 0.07 0.07 0.07 0.09 0.11 0.13 0.13 0.12 0.08 0.04 0.04 0.04 0.05 0.06 0.07 0.06 0.07 0.05 0.05 0.06
0.00 0.00 0.00 0.00 0.00 0.00 0.00 0.00 0.01 0.01 0.02 0.01 0.00 0.00 0.00 0.00 0.00 0.01 0.02 0.03 0.03 0.04 0.04 0.05 0.06 0.05 0.06 0.06 0.06 0.07 0.08 0.09 0.08 0.11 0.11 0.12 0.12 0.11 0.06 0.05 0.06 0.06 0.06 0.06 0.05 0.04 0.05 0.06 0.06
0.00 0.00 0.01 0.02 0.02 0.01 0.00 0.00 0.01 0.01 0.02 0.01 0.00 0.00 0.00 0.00 0.01 0.01 0.01 0.02 0.03 0.03 0.04 0.05 0.06 0.05 0.05 0.05 0.05 0.06 0.08 0.11 0.09 0.08 0.09 0.11 0.12 0.11 0.09 0.07 0.06 0.07 0.06 0.05 0.04 0.04 0.05 0.04 0.04
0.00 0.00 0.01 0.03 0.03 0.02 0.01 0.00 0.00 0.01 0.01 0.00 0.00 0.00 0.00 0.00 0.00 0.00 0.01 0.02 0.03 0.03 0.04 0.04 0.05 0.06 0.06 0.06 0.05 0.06 0.08 0.08 0.08 0.10 0.09 0.10 0.10 0.11 0.09 0.07 0.06 0.06 0.06 0.05 0.06 0.04 0.04 0.04 0.04
0.00 0.00 0.00 0.00 0.01 0.03 0.04 0.02 0.00 0.00 0.00 0.00 0.00 0.00 0.00 0.00 0.00 0.00 0.00 0.01 0.03 0.04 0.06 0.06 0.06 0.06 0.06 0.07 0.07 0.06 0.07 0.07 0.09 0.10 0.09 0.09 0.10 0.08 0.06 0.05 0.04 0.04 0.05 0.05 0.05 0.05 0.05 0.04 0.03
0.00 0.00 0.00 0.00 0.01 0.03 0.05 0.04 0.02 0.00 0.00 0.00 0.00 0.00 0.00 0.00 0.00 0.00 0.00 0.00 0.01 0.03 0.04 0.05 0.06 0.07 0.07 0.08 0.09 0.05 0.07 0.08 0.10 0.12 0.11 0.09 0.08 0.08 0.06 0.05 0.04 0.05 0.04 0.03 0.04 0.04 0.04 0.05 0.04
0.00 0.00 0.00 0.00 0.00 0.01 0.04 0.05 0.03 0.02 0.01 0.00 0.00 0.00 0.00 0.00 0.00 0.00 0.01 0.01 0.01 0.01 0.01 0.03 0.05 0.07 0.07 0.07 0.09 0.08 0.08 0.08 0.11 0.12 0.11 0.11 0.11 0.09 0.08 0.07 0.06 0.05 0.05 0.05 0.05 0.05 0.05 0.05 0.05
0.00 0.00 0.00 0.00 0.00 0.01 0.03 0.03 0.04 0.03 0.01 0.00 0.00 0.00 0.00 0.00 0.00 0.00 0.00 0.01 0.02 0.02 0.02 0.03 0.05 0.06 0.05 0.04 0.05 0.07 0.09 0.10 0.09 0.10 0.11 0.12 0.10 0.09 0.09 0.08 0.08 0.07 0.06 0.06 0.05 0.04 0.05 0.06 0.07
MSLP
1003.41 1004.12 1005.02 1005.95 1006.72 1007.19 1007.31 1007.06 1006.56 1005.94 1005.37 1004.99 1004.87 1005.04 1005.42 1005.92 1006.43 1006.87 1007.19 1007.42 1007.61 1007.83 1008.14 1008.56 1009.09 1009.67 1010.21 1010.65 1010.96 1011.11 1011.15 1011.14 1011.15 1011.22 1011.39 1011.63 1011.90 1012.17 1012.37 1012.50 1012.56 1012.57 1012.59 1012.66 1012.79 1012.98 1013.22 1013.46 1013.68
1003.65 1004.45 1005.38 1006.26 1006.94 1007.28 1007.26 1006.90 1006.32 1005.66 1005.08 1004.71 1004.62 1004.79 1005.16 1005.64 1006.13 1006.55 1006.89 1007.16 1007.42 1007.73 1008.13 1008.65 1009.24 1009.85 1010.41 1010.85 1011.14 1011.29 1011.35 1011.38 1011.45 1011.59 1011.80 1012.08 1012.36 1012.61 1012.77 1012.84 1012.85 1012.83 1012.83 1012.89 1013.04 1013.25 1013.50 1013.75 1013.96
1003.97 1004.81 1005.71 1006.49 1007.03 1007.23 1007.08 1006.63 1006.00 1005.34 1004.80 1004.49 1004.43 1004.63 1005.00 1005.46 1005.91 1006.31 1006.64 1006.94 1007.26 1007.65 1008.15 1008.74 1009.41 1010.06 1010.63 1011.07 1011.36 1011.52 1011.59 1011.65 1011.76 1011.93 1012.18 1012.47 1012.74 1012.96 1013.08 1013.12 1013.09 1013.06 1013.06 1013.15 1013.32 1013.56 1013.83 1014.08 1014.27
1004.34 1005.16 1005.96 1006.61 1006.99 1007.04 1006.77 1006.27 1005.64 1005.04 1004.59 1004.36 1004.38 1004.62 1004.99 1005.42 1005.83 1006.19 1006.50 1006.81 1007.17 1007.63 1008.20 1008.87 1009.59 1010.29 1010.88 1011.33 1011.62 1011.78 1011.87 1011.95 1012.08 1012.27 1012.52 1012.80 1013.05 1013.24 1013.33 1013.35 1013.32 1013.30 1013.34 1013.46 1013.67 1013.94 1014.21 1014.44 1014.60
1004.72 1005.45 1006.11 1006.59 1006.80 1006.72 1006.38 1005.87 1005.30 1004.81 1004.48 1004.38 1004.50 1004.78 1005.16 1005.56 1005.92 1006.22 1006.50 1006.79 1007.17 1007.66 1008.29 1009.02 1009.79 1010.52 1011.14 1011.60 1011.90 1012.07 1012.16 1012.25 1012.38 1012.57 1012.82 1013.08 1013.30 1013.46 1013.55 1013.56 1013.56 1013.58 1013.66 1013.84 1014.08 1014.37 1014.63 1014.83 1014.95
1005.03 1005.63 1006.13 1006.43 1006.49 1006.31 1005.94 1005.47 1005.01 1004.66 1004.50 1004.55 1004.77 1005.11 1005.50 1005.86 1006.16 1006.40 1006.62 1006.88 1007.25 1007.76 1008.42 1009.18 1009.98 1010.72 1011.35 1011.82 1012.13 1012.30 1012.41 1012.51 1012.64 1012.83 1013.06 1013.30 1013.51 1013.66 1013.74 1013.78 1013.81 1013.88 1014.02 1014.24 1014.52 1014.81 1015.05 1015.21 1015.26
1005.24 1005.68 1006.00 1006.13 1006.07 1005.82 1005.47 1005.08 1004.76 1004.60 1004.62 1004.82 1005.16 1005.56 1005.96 1006.29 1006.53 1006.71 1006.86 1007.08 1007.42 1007.91 1008.56 1009.31 1010.10 1010.85 1011.47 1011.94 1012.25 1012.44 1012.56 1012.67 1012.82 1013.02 1013.25 1013.48 1013.68 1013.84 1013.93 1014.00 1014.07 1014.19 1014.38 1014.63 1014.92 1015.20 1015.41 1015.51 1015.50
1005.32 1005.60 1005.74 1005.74 1005.58 1005.31 1004.99 1004.72 1004.56 1004.57 1004.77 1005.13 1005.58 1006.04 1006.46 1006.77 1006.97 1007.08 1007.19 1007.36 1007.65 1008.10 1008.70 1009.41 1010.16 1010.86 1011.46 1011.91 1012.22 1012.43 1012.58 1012.72 1012.90 1013.12 1013.37 1013.61 1013.83 1013.99 1014.11 1014.20 1014.31 1014.46 1014.68 1014.95 1015.23 1015.49 1015.65 1015.70 1015.64
1005.26 1005.39 1005.40 1005.28 1005.06 1004.79 1004.54 1004.38 1004.37 1004.55 1004.90 1005.39 1005.93 1006.45 1006.89 1007.20 1007.39 1007.48 1007.55 1007.68 1007.92 1008.32 1008.85 1009.48 1010.15 1010.79 1011.32 1011.74 1012.05 1012.27 1012.46 1012.65 1012.88 1013.14 1013.42 1013.70 1013.93 1014.11 1014.25 1014.36 1014.49 1014.66 1014.89 1015.15 1015.42 1015.64 1015.77 1015.78 1015.67
1005.10 1005.11 1005.01 1004.82 1004.57 1004.32 1004.13 1004.07 1004.18 1004.48 1004.94 1005.52 1006.13 1006.71 1007.18 1007.52 1007.72 1007.82 1007.90 1008.01 1008.22 1008.56 1009.01 1009.55 1010.11 1010.65 1011.11 1011.48 1011.77 1012.01 1012.23 1012.48 1012.76 1013.08 1013.41 1013.72 1013.99 1014.19 1014.34 1014.47 1014.60 1014.76 1014.98 1015.22 1015.46 1015.65 1015.76 1015.74 1015.63
1004.89 1004.82 1004.65 1004.41 1004.15 1003.93 1003.79 1003.80 1003.97 1004.34 1004.86 1005.47 1006.12 1006.74 1007.25 1007.64 1007.89 1008.05 1008.18 1008.31 1008.52 1008.81 1009.18 1009.62 1010.07 1010.50 1010.87 1011.18 1011.44 1011.69 1011.94 1012.24 1012.58 1012.96 1013.34 1013.69 1013.98 1014.21 1014.37 1014.49 1014.62 1014.77 1014.95 1015.17 1015.39 1015.56 1015.65 1015.65 1015.56
1004.70 1004.59 1004.38 1004.13 1003.87 1003.66 1003.55 1003.57 1003.77 1004.13 1004.64 1005.24 1005.89 1006.52 1007.07 1007.52 1007.87 1008.12 1008.33 1008.53 1008.76 1009.04 1009.37 1009.72 1010.07 1010.39 1010.68 1010.92 1011.14 1011.38 1011.65 1011.98 1012.37 1012.79 1013.21 1013.60 1013.91 1014.15 1014.32 1014.44 1014.55 1014.68 1014.85 1015.04 1015.24 1015.41 1015.52 1015.54 1015.49
1004.60 1004.47 1004.27 1004.01 1003.76 1003.56 1003.44 1003.44 1003.59 1003.89 1004.33 1004.87 1005.47 1006.08 1006.66 1007.18 1007.62 1007.99 1008.32 1008.62 1008.92 1009.22 1009.53 1009.83 1010.10 1010.34 1010.55 1010.73 1010.92 1011.14 1011.41 1011.76 1012.16 1012.60 1013.04 1013.44 1013.78 1014.03 1014.20 1014.33 1014.43 1014.55 1014.70 1014.88 1015.07 1015.26 1015.40 1015.47 1015.49
1004.63 1004.51 1004.32 1004.09 1003.85 1003.64 1003.50 1003.44 1003.50 1003.69 1004.01 1004.43 1004.94 1005.50 1006.07 1006.64 1007.17 1007.67 1008.12 1008.54 1008.92 1009.28 1009.61 1009.90 1010.14 1010.34 1010.50 1010.64 1010.80 1011.00 1011.26 1011.59 1011.98 1012.41 1012.85 1013.25 1013.58 1013.84 1014.03 1014.16 1014.28 1014.40 1014.55 1014.74 1014.95 1015.16 1015.34 1015.47 1015.55
1004.80 1004.70 1004.53 1004.33 1004.11 1003.91 1003.73 1003.61 1003.56 1003.61 1003.76 1004.03 1004.41 1004.87 1005.41 1005.98 1006.58 1007.16 1007.73 1008.26 1008.74 1009.18 1009.55 1009.87 1010.12 1010.32 1010.48 1010.61 1010.76 1010.94 1011.18 1011.48 1011.84 1012.24 1012.64 1013.02 1013.35 1013.62 1013.83 1013.99 1014.13 1014.29 1014.46 1014.67 1014.90 1015.14 1015.37 1015.55 1015.69
1005.06 1004.97 1004.84 1004.69 1004.51 1004.33 1004.13 1003.95 1003.79 1003.69 1003.67 1003.77 1003.98 1004.32 1004.76 1005.30 1005.91 1006.54 1007.17 1007.79 1008.35 1008.87 1009.31 1009.69 1009.99 1010.23 1010.43 1010.60 1010.76 1010.95 1011.17 1011.44 1011.75 1012.10 1012.45 1012.80 1013.12 1013.39 1013.63 1013.83 1014.03 1014.23 1014.44 1014.69 1014.95 1015.22 1015.47 1015.69 1015.87
1005.34 1005.27 1005.19 1005.10 1004.99 1004.85 1004.67 1004.45 1004.20 1003.97 1003.78 1003.69 1003.72 1003.90 1004.22 1004.67 1005.23 1005.86 1006.51 1007.17 1007.79 1008.36 1008.87 1009.32 1009.70 1010.03 1010.30 1010.54 1010.76 1010.97 1011.19 1011.44 1011.70 1011.99 1012.30 1012.60 1012.90 1013.19 1013.46 1013.72 1013.97 1014.23 1014.50 1014.79 1015.08 1015.37 1015.64 1015.88 1016.07
1005.54 1005.51 1005.50 1005.50 1005.48 1005.42 1005.28 1005.06 1004.75 1004.41 1004.07 1003.80 1003.65 1003.66 1003.83 1004.16 1004.62 1005.19 1005.82 1006.46 1007.10 1007.71 1008.27 1008.79 1009.26 1009.68 1010.06 1010.40 1010.70 1010.97 1011.22 1011.46 1011.69 1011.94 1012.19 1012.46 1012.74 1013.04 1013.34 1013.65 1013.97 1014.30 1014.63 1014.95 1015.27 1015.57 1015.84 1016.07 1016.26
1005.61 1005.61 1005.69 1005.81 1005.92 1005.97 1005.91 1005.71 1005.38 1004.95 1004.49 1004.06 1003.74 1003.56 1003.57 1003.77 1004.12 1004.60 1005.16 1005.77 1006.38 1006.99 1007.59 1008.16 1008.71 1009.22 1009.71 1010.16 1010.56 1010.91 1011.22 1011.48 1011.71 1011.92 1012.14 1012.38 1012.64 1012.94 1013.27 1013.64 1014.01 1014.40 1014.78 1015.14 1015.47 1015.77 1016.03 1016.25 1016.42
1005.48 1005.55 1005.74 1006.00 1006.27 1006.45 1006.48 1006.33 1005.99 1005.50 1004.93 1004.36 1003.88 1003.56 1003.42 1003.48 1003.73 1004.12 1004.61 1005.16 1005.74 1006.33 1006.92 1007.52 1008.12 1008.71 1009.30 1009.86 1010.36 1010.81 1011.19 1011.50 1011.74 1011.95 1012.15 1012.36 1012.61 1012.91 1013.26 1013.65 1014.07 1014.50 1014.92 1015.31 1015.66 1015.95 1016.20 1016.40 1016.55
1005.18 1005.35 1005.68 1006.10 1006.52 1006.84 1006.97 1006.86 1006.51 1005.96 1005.29 1004.60 1003.99 1003.54 1003.29 1003.26 1003.43 1003.77 1004.21 1004.72 1005.26 1005.82 1006.40 1006.99 1007.60 1008.24 1008.89 1009.53 1010.13 1010.67 1011.13 1011.50 1011.79 1012.02 1012.21 1012.41 1012.64 1012.93 1013.27 1013.68 1014.12 1014.57 1015.02 1015.43 1015.78 1016.08 1016.31 1016.49 1016.63
1004.77 1005.07 1005.57 1006.16 1006.74 1007.18 1007.38 1007.29 1006.90 1006.27 1005.49 1004.68 1003.96 1003.41 1003.10 1003.03 1003.19 1003.52 1003.97 1004.48 1005.01 1005.55 1006.09 1006.66 1007.25 1007.89 1008.55 1009.23 1009.90 1010.52 1011.05 1011.49 1011.84 1012.10 1012.31 1012.51 1012.72 1012.99 1013.31 1013.70 1014.14 1014.60 1015.05 1015.47 1015.83 1016.13 1016.36 1016.53 1016.67
1004.37 1004.83 1005.51 1006.27 1006.98 1007.51 1007.75 1007.63 1007.17 1006.42 1005.51 1004.58 1003.75 1003.14 1002.80 1002.75 1002.95 1003.35 1003.86 1004.42 1004.98 1005.52 1006.04 1006.56 1007.11 1007.70 1008.34 1009.01 1009.70 1010.36 1010.96 1011.47 1011.88 1012.19 1012.43 1012.63 1012.83 1013.07 1013.37 1013.73 1014.14 1014.58 1015.02 1015.44 1015.80 1016.10 1016.34 1016.52 1016.66
1004.09 1004.74 1005.59 1006.51 1007.33 1007.91 1008.12 1007.93 1007.34 1006.44 1005.38 1004.31 1003.38 1002.72 1002.39 1002.39 1002.69 1003.20 1003.84 1004.50 1005.14 1005.71 1006.22 1006.69 1007.17 1007.68 1008.25 1008.88 1009.55 1010.23 1010.87 1011.43 1011.90 1012.27 1012.55 1012.77 1012.97 1013.19 1013.44 1013.76 1014.13 1014.53 1014.95 1015.35 1015.71 1016.02 1016.26 1016.45 1016.60
1004.02 1004.86 1005.89 1006.93 1007.82 1008.40 1008.56 1008.24 1007.50 1006.42 1005.18 1003.96 1002.93 1002.21 1001.89 1001.97 1002.39 1003.06 1003.85 1004.65 1005.40 1006.03 1006.55 1006.98 1007.38 1007.80 1008.27 1008.83 1009.45 1010.11 1010.77 1011.38 1011.90 1012.33 1012.66 1012.91 1013.12 1013.32 1013.54 1013.81 1014.13 1014.49 1014.87 1015.25 1015.60 1015.90 1016.15 1016.34 1016.49
1004.20 1005.22 1006.39 1007.52 1008.44 1008.99 1009.05 1008.60 1007.68 1006.42 1005.00 1003.62 1002.48 1001.72 1001.41 1001.55 1002.09 1002.90 1003.85 1004.81 1005.67 1006.37 1006.92 1007.32 1007.65 1007.98 1008.35 1008.81 1009.36 1009.99 1010.65 1011.29 1011.87 1012.36 1012.75 1013.04 1013.27 1013.46 1013.66 1013.88 1014.15 1014.46 1014.80 1015.15 1015.47 1015.76 1016.00 1016.19 1016.33
1004.60 1005.76 1007.01 1008.19 1009.10 1009.60 1009.56 1008.98 1007.91 1006.49 1004.91 1003.41 1002.17 1001.35 1001.02 1001.20 1001.82 1002.74 1003.82 1004.90 1005.87 1006.65 1007.22 1007.62 1007.90 1008.14 1008.42 1008.79 1009.27 1009.85 1010.50 1011.16 1011.79 1012.34 1012.78 1013.13 1013.38 1013.59 1013.77 1013.96 1014.19 1014.45 1014.75 1015.06 1015.36 1015.62 1015.84 1016.00 1016.12
1005.13 1006.34 1007.62 1008.78 1009.66 1010.09 1009.98 1009.31 1008.15 1006.62 1004.96 1003.37 1002.06 1001.19 1000.84 1001.01 1001.65 1002.62 1003.76 1004.91 1005.94 1006.78 1007.38 1007.78 1008.03 1008.22 1008.43 1008.73 1009.15 1009.68 1010.31 1010.98 1011.64 1012.23 1012.73 1013.12 1013.42 1013.64 1013.82 1014.00 1014.20 1014.43 1014.69 1014.96 1015.23 1015.46 1015.65 1015.78 1015.86
1005.62 1006.80 1008.01 1009.11 1009.91 1010.29 1010.14 1009.45 1008.29 1006.77 1005.12 1003.53 1002.21 1001.31 1000.91 1001.04 1001.64 1002.58 1003.70 1004.85 1005.89 1006.75 1007.37 1007.77 1008.02 1008.18 1008.36 1008.61 1008.98 1009.47 1010.07 1010.73 1011.39 1012.01 1012.54 1012.97 1013.30 1013.55 1013.74 1013.92 1014.11 1014.32 1014.55 1014.80 1015.03 1015.24 1015.40 1015.50 1015.54
1005.94 1006.97 1008.04 1009.00 1009.71 1010.03 1009.90 1009.28 1008.22 1006.83 1005.30 1003.82 1002.57 1001.69 1001.27 1001.33 1001.83 1002.67 1003.70 1004.77 1005.76 1006.59 1007.21 1007.62 1007.87 1008.05 1008.21 1008.44 1008.77 1009.23 1009.78 1010.41 1011.05 1011.66 1012.19 1012.63 1012.98 1013.24 1013.45 1013.64 1013.83 1014.03 1014.26 1014.49 1014.72 1014.91 1015.05 1015.13 1015.15
Thickness
5842 5846 5845 5838 5815 5798 5800 5823 5839 5835 5836 5844 5846 5838 5820 5811 5800 5786 5814 5822 5816 5807 5800 5795 5793 5791 5790 5788 5787 5786 5785 5784 5783 5781 5780 5779 5778 5777 5775 5774 5773 5772 5771 5770 5769 5768 5767 5766 5764
5848 5851 5845 5830 5798 5781 5797 5826 5831 5835 5842 5848 5844 5836 5823 5815 5820 5816 5818 5819 5816 5808 5802 5796 5792 5790 5788 5787 5785 5784 5783 5782 5781 5780 5778 5777 5776 5775 5774 5772 5772 5771 5770 5768 5767 5766 5765 5764 5763
5846 5852 5835 5820 5799 5789 5805 5830 5837 5844 5850 5845 5835 5832 5821 5814 5821 5819 5821 5822 5817 5810 5802 5794 5791 5789 5787 5785 5784 5782 5781 5780 5779 5778 5776 5775 5774 5773 5772 5771 5770 5769 5768 5767 5765 5765 5764 5763 5762
5845 5842 5831 5815 5806 5823 5829 5839 5846 5843 5844 5845 5835 5821 5821 5829 5827 5825 5825 5823 5816 5809 5800 5793 5790 5788 5786 5784 5783 5781 5779 5778 5777 5776 5774 5773 5772 5771 5770 5769 5768 5767 5766 5765 5764 5763 5762 5761 5760
5845 5829 5812 5805 5816 5840 5851 5854 5852 5840 5837 5839 5832 5813 5809 5827 5832 5828 5825 5822 5815 5807 5799 5792 5789 5787 5785 5783 5782 5780 5778 5777 5775 5774 5773 5772 5771 5770 5769 5768 5767 5765 5765 5764 5763 5761 5760 5760 5759
5831 5825 5802 5802 5826 5847 5855 5859 5853 5842 5838 5838 5828 5812 5807 5825 5825 5824 5825 5820 5816 5807 5799 5791 5788 5786 5784 5782 5780 5778 5777 5775 5773 5772 5771 5771 5770 5769 5768 5767 5765 5764 5763 5762 5761 5760 5759 5758 5758
5823 5817 5806 5814 5824 5839 5851 5861 5850 5842 5836 5837 5837 5813 5808 5818 5823 5825 5823 5819 5816 5808 5799 5792 5788 5785 5783 5781 5779 5777 5776 5774 5772 5771 5770 5769 5769 5768 5767 5765 5763 5762 5761 5760 5759 5758 5757 5757 5758
5838 5821 5812 5821 5825 5837 5855 5857 5854 5844 5838 5849 5844 5816 5805 5816 5824 5823 5819 5815 5812 5807 5800 5795 5790 5786 5783 5780 5778 5776 5774 5772 5771 5770 5769 5768 5768 5767 5765 5763 5762 5761 5760 5759 5758 5757 5757 5757 5757
5842 5813 5808 5823 5833 5841 5856 5850 5851 5856 5846 5844 5845 5836 5827 5826 5823 5815 5810 5807 5804 5802 5800 5797 5792 5788 5785 5782 5778 5775 5773 5771 5770 5769 5768 5767 5766 5765 5763 5762 5760 5759 5759 5758 5757 5756 5756 5756 5757
5831 5808 5820 5843 5851 5851 5852 5849 5849 5845 5835 5832 5831 5832 5829 5824 5817 5809 5803 5800 5798 5797 5798 5798 5794 5791 5788 5785 5778 5776 5775 5771 5770 5769 5768 5767 5766 5765 5763 5760 5759 5758 5758 5757 5757 5756 5756 5756 5757
5832 5821 5836 5849 5856 5858 5852 5849 5853 5839 5824 5826 5823 5821 5820 5817 5812 5807 5803 5801 5799 5798 5797 5796 5794 5791 5789 5785 5780 5779 5776 5773 5771 5770 5769 5768 5766 5764 5762 5759 5757 5757 5757 5757 5756 5756 5757 5758 5758
5833 5835 5844 5851 5856 5855 5850 5850 5846 5839 5826 5832 5832 5828 5820 5813 5809 5806 5802 5801 5799 5796 5794 5794 5793 5790 5788 5786 5783 5780 5777 5774 5772 5770 5770 5768 5767 5765 5763 5760 5759 5758 5758 5758 5758 5758 5758 5758 5758
5831 5835 5846 5851 5853 5854 5850 5844 5843 5840 5844 5841 5832 5826 5820 5814 5811 5809 5806 5803 5799 5794 5792 5792 5791 5788 5786 5784 5783 5781 5779 5775 5773 5771 5769 5768 5766 5764 5762 5760 5760 5760 5759 5758 5758 5758 5757 5757 5757
5835 5839 5842 5847 5849 5850 5842 5841 5840 5839 5846 5838 5829 5823 5820 5816 5812 5809 5804 5800 5798 5795 5792 5791 5788 5785 5783 5781 5780 5779 5778 5775 5773 5771 5769 5768 5766 5763 5761 5760 5759 5759 5758 5758 5757 5757 5756 5755 5756
5838 5828 5831 5839 5843 5844 5839 5826 5832 5843 5844 5834 5828 5824 5821 5818 5814 5809 5806 5802 5799 5796 5793 5790 5787 5784 5781 5779 5778 5778 5777 5775 5773 5770 5768 5766 5764 5762 5760 5759 5758 5758 5758 5757 5756 5756 5755 5754 5754
5824 5814 5807 5829 5839 5842 5827 5807 5831 5843 5839 5831 5829 5825 5820 5818 5816 5813 5809 5804 5801 5797 5792 5789 5788 5782 5779 5777 5776 5777 5777 5775 5772 5769 5766 5764 5763 5760 5759 5758 5757 5757 5757 5756 5755 5754 5753 5752 5752
5804 5796 5801 5819 5839 5838 5825 5810 5829 5839 5835 5829 5828 5825 5820 5816 5815 5814 5811 5806 5802 5797 5792 5787 5786 5781 5778 5776 5774 5775 5774 5773 5770 5768 5765 5762 5761 5759 5757 5757 5756 5757 5756 5755 5755 5752 5751 5749 5749
5794 5800 5806 5814 5834 5833 5821 5815 5824 5835 5834 5831 5829 5825 5820 5815 5814 5815 5811 5807 5802 5797 5791 5786 5784 5780 5777 5775 5772 5771 5771 5770 5768 5766 5763 5761 5759 5758 5757 5756 5756 5755 5754 5753 5752 5750 5749 5748 5747
5811 5808 5810 5822 5840 5830 5821 5818 5824 5832 5833 5831 5828 5823 5816 5815 5818 5815 5810 5806 5800 5795 5789 5785 5781 5778 5775 5771 5768 5766 5765 5765 5765 5764 5762 5759 5758 5757 5755 5755 5754 5754 5752 5751 5750 5749 5747 5745 5747
5805 5801 5808 5823 5837 5829 5821 5820 5829 5833 5834 5836 5831 5825 5821 5815 5814 5812 5808 5804 5799 5793 5788 5784 5780 5777 5774 5772 5770 5768 5766 5765 5764 5763 5761 5759 5757 5756 5755 5754 5753 5752 5751 5750 5749 5747 5744 5744 5746
5799 5800 5808 5814 5823 5828 5817 5809 5820 5828 5838 5840 5838 5833 5828 5820 5814 5810 5805 5802 5798 5792 5788 5785 5781 5777 5774 5772 5768 5766 5763 5762 5761 5759 5757 5757 5756 5755 5754 5753 5752 5752 5750 5748 5747 5746 5743 5740 5743
5790 5813 5816 5814 5804 5801 5809 5786 5804 5817 5824 5830 5833 5833 5830 5826 5819 5813 5807 5802 5799 5795 5791 5787 5781 5778 5774 5772 5768 5764 5760 5757 5758 5758 5756 5756 5755 5753 5753 5752 5751 5750 5749 5747 5746 5746 5745 5741 5738
5803 5821 5817 5811 5802 5798 5806 5794 5799 5816 5808 5819 5829 5832 5832 5829 5823 5816 5811 5805 5801 5798 5793 5788 5782 5777 5774 5771 5768 5764 5761 5760 5760 5758 5755 5753 5752 5752 5752 5751 5750 5748 5748 5747 5746 5745 5744 5742 5740
5812 5810 5807 5807 5799 5777 5793 5791 5789 5806 5806 5814 5826 5832 5833 5831 5827 5819 5813 5808 5802 5799 5794 5788 5781 5776 5774 5770 5768 5764 5762 5760 5758 5755 5752 5750 5750 5750 5750 5750 5749 5748 5747 5746 5745 5744 5743 5741 5740
5801 5784 5765 5760 5763 5770 5801 5795 5794 5816 5822 5822 5824 5831 5833 5832 5825 5817 5811 5806 5801 5797 5794 5789 5781 5775 5773 5770 5767 5765 5763 5760 5757 5755 5753 5751 5749 5748 5749 5750 5749 5748 5746 5746 5745 5743 5742 5741 5739
5791 5786 5762 5748 5753 5770 5787 5785 5805 5830 5831 5833 5835 5835 5831 5828 5826 5820 5814 5808 5803 5798 5794 5789 5782 5776 5773 5770 5767 5765 5763 5760 5758 5756 5755 5753 5752 5751 5751 5750 5748 5747 5746 5746 5744 5742 5741 5740 5739
5785 5785 5798 5780 5772 5760 5768 5785 5806 5828 5829 5831 5832 5831 5827 5826 5824 5819 5815 5810 5804 5799 5794 5790 5784 5778 5774 5771 5767 5765 5763 5761 5760 5758 5757 5755 5754 5753 5752 5750 5748 5747 5746 5745 5743 5741 5740 5739 5738
5801 5795 5787 5772 5750 5747 5759 5767 5776 5797 5807 5820 5823 5823 5823 5823 5821 5817 5814 5809 5805 5801 5796 5792 5786 5780 5776 5772 5768 5766 5764 5762 5760 5759 5756 5755 5754 5753 5752 5750 5748 5746 5745 5744 5742 5740 5739 5738 5737
5788 5786 5785 5782 5777 5759 5746 5757 5795 5796 5807 5814 5820 5821 5820 5820 5818 5815 5811 5808 5804 5801 5796 5790 5785 5780 5775 5772 5769 5768 5765 5762 5760 5758 5757 5755 5754 5752 5750 5749 5747 5745 5743 5742 5740 5739 5739 5737 5736
5795 5789 5785 5766 5766 5775 5763 5760 5802 5799 5809 5815 5818 5819 5819 5818 5816 5813 5809 5804 5800 5796 5793 5789 5785 5780 5776 5773 5770 5767 5764 5762 5759 5758 5757 5756 5753 5751 5750 5749 5746 5744 5742 5741 5739 5738 5738 5736 5734